GW3941 Weather Reports


Display with metric or nautical units.
time (UTC)temp
F
wind
direction
speed
MPH
gust
MPH
rain 1hr
in
rain 24hr
in
rain mn
in
humidity
%
barometer
mb
20260505193517 81 210 2.0 13.0 0.00 0.01 0.01 48 1008.1
20260505193016 80 222 5.0 11.0 0.00 0.01 0.01 47 1008.1
20260505192519 80 139 4.0 11.0 0.00 0.01 0.01 46 1008.0
20260505192016 80 175 3.0 11.0 0.00 0.01 0.01 47 1008.1
20260505191515 80 159 5.0 12.0 0.00 0.01 0.01 47 1008.2
20260505191014 80 248 5.0 18.0 0.00 0.01 0.01 47 1008.4
20260505190517 80 240 7.0 19.0 0.00 0.01 0.01 46 1008.4
20260505190014 80 69 8.0 20.0 0.00 0.01 0.01 43 1008.5
20260505185518 80 261 4.0 21.0 0.00 0.01 0.01 44 1008.5
20260505185013 80 200 7.0 18.0 0.00 0.01 0.01 45 1008.5
20260505184518 81 249 7.0 12.0 0.00 0.01 0.01 47 1008.5
20260505184012 81 229 6.0 12.0 0.00 0.01 0.01 47 1008.6
20260505183510 81 186 5.0 18.0 0.00 0.01 0.01 48 1008.6
20260505183010 80 236 4.0 15.0 0.00 0.01 0.01 52 1008.7
20260505182510 80 218 4.0 15.0 0.00 0.01 0.01 48 1008.8
20260505182009 80 212 6.0 17.0 0.00 0.01 0.01 47 1008.9
20260505181509 80 195 9.0 17.0 0.00 0.01 0.01 45 1009.0
20260505181009 80 296 5.0 16.0 0.00 0.01 0.01 47 1009.1
20260505180518 80 218 5.0 14.0 0.00 0.01 0.01 46 1009.1
20260505180008 80 271 6.0 15.0 0.00 0.01 0.01 46 1009.0
20260505175508 80 202 5.0 18.0 0.00 0.01 0.01 46 1009.1
20260505175109 80 279 8.0 18.0 0.00 0.01 0.01 46 1009.1
20260505174511 80 321 7.0 15.0 0.00 0.01 0.01 48 1009.1
20260505174005 80 157 3.0 15.0 0.00 0.01 0.01 51 1009.2
20260505173509 79 190 6.0 15.0 0.00 0.01 0.01 49 1009.3
20260505173012 80 203 5.0 16.0 0.00 0.01 0.01 50 1009.3
20260505172503 79 103 3.0 16.0 0.00 0.01 0.01 52 1009.4
20260505172002 79 323 2.0 11.0 0.00 0.01 0.01 54 1009.4
20260505171502 78 214 4.0 17.0 0.00 0.01 0.01 54 1009.5
20260505171002 78 163 6.0 17.0 0.00 0.01 0.01 53 1009.6
20260505170501 78 259 5.0 15.0 0.00 0.01 0.01 54 1009.6
20260505170000 79 203 5.0 13.0 0.00 0.01 0.01 54 1009.6
20260505165601 79 238 4.0 7.0 0.00 0.01 0.01 55 1009.8
20260505165058 78 123 3.0 11.0 0.00 0.01 0.01 56 1009.9
20260505164603 78 234 4.0 11.0 0.00 0.01 0.01 55 1009.9
20260505164057 78 269 5.0 11.0 0.00 0.01 0.01 56 1009.9
20260505163556 78 26 5.0 15.0 0.00 0.01 0.01 57 1010.0
20260505163101 78 64 5.0 15.0 0.00 0.01 0.01 55 1010.1
20260505162559 78 234 3.0 12.0 0.00 0.01 0.01 58 1010.0
20260505162054 77 146 2.0 8.0 0.00 0.01 0.01 58 1010.1
20260505161554 77 141 2.0 6.0 0.00 0.01 0.01 57 1010.2
20260505161053 77 67 2.0 7.0 0.00 0.01 0.01 58 1010.3
20260505160555 77 298 1.0 5.0 0.00 0.01 0.01 61 1010.3
20260505153055 74 276 2.0 10.0 0.00 0.01 0.01 64 1010.7
20260505152542 73 295 2.0 6.0 0.00 0.01 0.01 64 1010.7
20260505152042 73 153 1.0 7.0 0.00 0.01 0.01 65 1010.7
20260505151545 72 248 2.0 7.0 0.00 0.01 0.01 64 1010.9
20260505151037 72 224 1.0 8.0 0.00 0.01 0.01 67 1010.8
20260505150538 71 194 1.0 8.0 0.00 0.01 0.01 67 1010.9
20260505140524 66 248 2.0 7.0 0.00 0.01 0.01 74 1011.5
20260505125010 61 224 2.0 5.0 0.00 0.01 0.01 81 1011.4
20260505124507 61 182 2.0 6.0 0.00 0.01 0.01 83 1011.3
20260505124010 61 267 1.0 7.0 0.00 0.01 0.01 82 1011.4
20260505123505 60 135 1.0 5.0 0.00 0.01 0.01 82 1011.4
20260505123005 60 103 1.0 8.0 0.00 0.01 0.01 82 1011.4
20260505122504 60 266 2.0 8.0 0.00 0.01 0.01 82 1011.3
20260505122004 60 148 1.0 5.0 0.00 0.01 0.01 82 1011.3
20260505121501 60 250 2.0 5.0 0.00 0.01 0.01 81 1011.3
20260505121100 60 254 1.0 5.0 0.00 0.01 0.01 82 1011.0
20260505120559 59 242 2.0 4.0 0.00 0.01 0.01 81 1011.0
20260505120059 59 244 1.0 3.0 0.00 0.01 0.01 83 1011.1
20260505115600 59 243 1.0 5.0 0.00 0.01 0.01 84 1011.0
20260505115057 58 233 1.0 4.0 0.00 0.01 0.01 84 1011.1
20260505114559 58 233 0.0 4.0 0.00 0.01 0.01 85 1011.1
20260505114059 57 226 1.0 4.0 0.00 0.01 0.01 86 1011.2
20260505113558 56 221 1.0 4.0 0.00 0.01 0.01 87 1011.2
20260505113101 56 207 1.0 6.0 0.00 0.01 0.01 89 1011.2
20260505112555 55 219 1.0 6.0 0.00 0.01 0.01 89 1011.2
20260505112055 55 203 0.0 5.0 0.00 0.01 0.01 90 1011.3
20260505111558 55 179 1.0 5.0 0.00 0.01 0.01 91 1011.2
20260505111055 54 173 1.0 3.0 0.00 0.01 0.01 91 1011.3
20260505110554 54 130 1.0 2.0 0.00 0.01 0.01 92 1011.1
20260505102052 53 168 0.0 3.0 0.01 0.01 0.01 94 1010.9
20260505101554 53 136 0.0 4.0 0.01 0.01 0.01 94 1010.9
20260505101051 53 136 2.0 4.0 0.01 0.01 0.01 92 1010.6
20260505100550 54 136 1.0 3.0 0.01 0.01 0.01 91 1010.9
20260505100053 54 138 0.0 3.0 0.01 0.01 0.01 91 1011.1
20260505095550 55 138 0.0 2.0 0.01 0.01 0.01 90 1011.0
20260505095049 55 138 0.0 4.0 0.01 0.01 0.01 89 1010.8
20260505094546 55 138 1.0 5.0 0.01 0.01 0.01 87 1010.8
20260505094045 56 134 1.0 5.0 0.01 0.01 0.01 85 1010.8
20260505093543 56 243 0.0 3.0 0.00 0.00 0.00 82 1011.2
20260505093043 56 243 1.0 3.0 0.00 0.00 0.00 81 1011.0
20260505092542 56 243 0.0 4.0 0.00 0.00 0.00 81 1010.9
20260505092040 56 243 1.0 4.0 0.00 0.00 0.00 80 1010.9
20260505091552 56 243 1.0 4.0 0.00 0.00 0.00 80 1010.7
20260505091043 56 242 2.0 4.0 0.00 0.00 0.00 79 1010.6
20260505090542 57 242 0.0 3.0 0.00 0.00 0.00 79 1010.5
20260505090052 57 242 0.0 4.0 0.00 0.00 0.00 79 1010.6
20260505085539 57 241 2.0 4.0 0.00 0.00 0.00 78 1010.7
20260505085039 57 240 0.0 3.0 0.00 0.00 0.00 78 1010.4
20260505084539 57 240 1.0 4.0 0.00 0.00 0.00 78 1010.3
20260505084038 57 234 1.0 4.0 0.00 0.00 0.00 78 1010.3
20260505083538 57 234 0.0 5.0 0.00 0.00 0.00 78 1010.3
20260505083043 57 244 1.0 5.0 0.00 0.00 0.00 78 1010.3
20260505082539 57 240 1.0 5.0 0.00 0.00 0.00 78 1010.4
20260505082038 57 203 0.0 3.0 0.00 0.00 0.00 77 1010.4
20260505081552 57 209 0.0 3.0 0.00 0.00 0.00 77 1010.4
20260505081038 57 213 1.0 4.0 0.00 0.00 0.00 76 1010.4
20260505080541 57 218 1.0 4.0 0.00 0.00 0.00 76 1010.3
20260505080046 57 213 1.0 3.0 0.00 0.00 0.00 76 1010.3
20260505075537 57 218 1.0 6.0 0.00 0.00 0.00 75 1010.4
20260505075037 57 218 2.0 6.0 0.00 0.00 0.00 76 1010.4
20260505074550 57 196 2.0 4.0 0.00 0.00 0.00 75 1010.3
20260505074037 57 190 2.0 4.0 0.00 0.00 0.00 75 1010.3
20260505073536 57 190 2.0 4.0 0.00 0.00 0.00 76 1010.3
20260505073036 57 188 2.0 4.0 0.00 0.00 0.00 76 1010.3
20260505072535 57 188 1.0 3.0 0.00 0.00 0.00 76 1010.2
20260505072035 57 188 0.0 4.0 0.00 0.00 0.00 76 1010.3
20260505071535 57 188 2.0 4.0 0.00 0.00 0.00 75 1010.3
20260505071035 57 188 0.0 3.0 0.00 0.00 0.00 75 1010.3
20260505070535 57 188 0.0 3.0 0.00 0.00 0.00 75 1010.3
20260505070035 57 188 1.0 4.0 0.00 0.00 0.00 75 1010.4
20260505065535 57 188 1.0 4.0 0.00 0.00 0.00 75 1010.3
20260505065034 57 188 1.0 5.0 0.00 0.00 0.00 75 1010.4
20260505064536 57 188 1.0 5.0 0.00 0.00 0.00 75 1010.3
20260505064034 57 271 1.0 4.0 0.00 0.00 0.00 74 1010.4
20260505063533 57 257 1.0 9.0 0.00 0.00 0.00 74 1010.4
20260505063039 57 234 2.0 9.0 0.00 0.00 0.00 75 1010.4
20260505062534 57 253 2.0 6.0 0.00 0.00 0.00 75 1010.4
20260505062035 57 286 3.0 6.0 0.00 0.00 0.00 75 1010.4
20260505061542 57 271 2.0 8.0 0.00 0.00 0.00 74 1010.4
20260505061032 57 282 2.0 8.0 0.00 0.00 0.00 74 1010.4
20260505060538 57 244 1.0 7.0 0.00 0.00 0.00 74 1010.3
20260505060032 57 83 2.0 7.0 0.00 0.00 0.00 74 1010.4
20260505055534 57 304 1.0 5.0 0.00 0.00 0.00 74 1010.4
20260505055033 57 304 1.0 5.0 0.00 0.00 0.00 74 1010.4
20260505054531 57 319 1.0 3.0 0.00 0.00 0.00 74 1010.4
20260505054034 57 323 1.0 3.0 0.00 0.00 0.00 74 1010.5
20260505053530 57 79 0.0 4.0 0.00 0.00 0.00 74 1010.4
20260505053030 57 95 1.0 4.0 0.00 0.00 0.00 73 1010.5
20260505052529 57 148 1.0 5.0 0.00 0.00 0.00 73 1010.4
20260505052030 57 208 1.0 4.0 0.00 0.00 0.00 73 1010.4
20260505051531 57 217 2.0 5.0 0.00 0.00 0.00 72 1010.5
20260505051030 57 176 1.0 5.0 0.00 0.00 0.00 72 1010.6
20260505050527 57 77 1.0 4.0 0.00 0.00 0.00 71 1010.5
20260505041519 59 141 1.0 8.0 0.00 0.00 0.00 67 1010.6
20260505041019 59 355 1.0 6.0 0.00 0.00 0.00 66 1010.7
20260505040518 59 89 1.0 6.0 0.00 0.00 0.00 66 1010.6
20260505040017 59 134 2.0 5.0 0.00 0.00 0.00 66 1010.7
20260505035516 59 107 1.0 8.0 0.00 0.00 0.00 66 1010.7
20260505035016 59 261 2.0 8.0 0.00 0.00 0.00 66 1010.6
20260505034519 59 92 2.0 7.0 0.00 0.00 0.00 66 1010.6
20260505034018 59 233 1.0 7.0 0.00 0.00 0.00 66 1010.6
20260505033520 59 355 2.0 7.0 0.00 0.00 0.00 66 1010.6
20260505033028 59 62 2.0 8.0 0.00 0.00 0.00 67 1010.7
20260505032516 59 82 2.0 8.0 0.00 0.00 0.00 67 1010.7
20260505032017 59 75 1.0 4.0 0.00 0.00 0.00 67 1010.8
20260505031516 59 75 2.0 4.0 0.00 0.00 0.00 66 1010.8
20260505031015 59 79 1.0 5.0 0.00 0.00 0.00 65 1010.8
20260505030515 59 80 1.0 5.0 0.00 0.00 0.00 65 1010.8
20260505030015 59 76 1.0 4.0 0.00 0.00 0.00 64 1010.9
20260505025519 60 76 1.0 5.0 0.00 0.00 0.00 64 1010.8
20260505025014 60 77 1.0 5.0 0.00 0.00 0.00 64 1010.9
20260505024533 60 74 1.0 5.0 0.00 0.00 0.00 63 1010.9
20260505024017 60 72 2.0 8.0 0.00 0.00 0.00 63 1010.9
20260505023516 60 71 2.0 8.0 0.00 0.00 0.00 63 1010.9
20260505023014 60 60 1.0 5.0 0.00 0.00 0.00 62 1010.9
20260505022514 60 54 2.0 6.0 0.00 0.00 0.00 63 1010.9
20260505022014 60 70 2.0 8.0 0.00 0.00 0.00 62 1011.0
20260505021528 60 122 1.0 4.0 0.00 0.00 0.00 62 1011.0
20260505021013 60 148 2.0 4.0 0.00 0.00 0.00 62 1011.0
20260505020513 60 97 1.0 4.0 0.00 0.00 0.00 62 1011.0
20260505020013 60 101 0.0 4.0 0.00 0.00 0.00 62 1010.9
20260505015517 61 101 1.0 4.0 0.00 0.00 0.00 61 1010.9
20260505015013 61 102 1.0 6.0 0.00 0.00 0.00 61 1011.0
20260505014513 61 99 1.0 6.0 0.00 0.00 0.00 61 1010.9
20260505014012 61 99 1.0 4.0 0.00 0.00 0.00 60 1010.8
20260505013511 61 97 2.0 4.0 0.00 0.00 0.00 60 1010.8
20260505013012 61 108 0.0 3.0 0.00 0.00 0.00 60 1010.8
20260505012514 62 107 1.0 4.0 0.00 0.00 0.00 61 1010.8
20260505012015 62 111 0.0 4.0 0.00 0.00 0.00 59 1010.8
20260505011512 62 130 0.0 5.0 0.00 0.00 0.00 59 1010.8
20260505011011 62 138 1.0 5.0 0.00 0.00 0.00 59 1010.7
20260505010511 62 168 0.0 3.0 0.00 0.00 0.00 59 1010.6
20260505010011 62 271 0.0 4.0 0.00 0.00 0.00 59 1010.5
20260505005511 62 270 1.0 5.0 0.00 0.00 0.00 59 1010.4
20260505005011 62 331 1.0 5.0 0.00 0.00 0.00 59 1010.4
20260505004521 62 149 1.0 4.0 0.00 0.00 0.00 59 1010.4
20260505004010 63 208 1.0 8.0 0.00 0.00 0.00 59 1010.5
20260505003510 63 213 2.0 8.0 0.00 0.00 0.00 59 1010.5
20260505003010 63 141 0.0 5.0 0.00 0.00 0.00 59 1010.4
20260505002510 63 202 1.0 5.0 0.00 0.00 0.00 58 1010.3
20260505002010 63 242 0.0 5.0 0.00 0.00 0.00 58 1010.2
20260505001510 64 236 2.0 4.0 0.00 0.00 0.00 58 1010.2
20260505001009 64 237 1.0 7.0 0.00 0.00 0.00 57 1010.2
20260505000511 64 225 3.0 7.0 0.00 0.00 0.00 57 1010.2
20260505000011 64 35 1.0 11.0 0.00 0.00 0.00 57 1010.1
20260504235508 64 206 2.0 11.0 0.00 0.00 0.00 57 1010.0
20260504235010 65 265 1.0 5.0 0.00 0.00 0.00 56 1010.0
20260504234507 65 294 0.0 4.0 0.00 0.00 0.00 57 1010.0
20260504234010 65 241 0.0 8.0 0.00 0.00 0.00 56 1009.9
20260504233507 65 242 2.0 9.0 0.00 0.00 0.00 56 1009.7
20260504233007 66 190 3.0 10.0 0.00 0.00 0.00 56 1009.7
20260504232507 66 321 1.0 8.0 0.00 0.00 0.00 55 1009.7
20260504232006 66 223 1.0 8.0 0.00 0.00 0.00 55 1009.6
20260504231506 66 187 2.0 8.0 0.00 0.00 0.00 55 1009.5
20260504231006 66 188 3.0 11.0 0.00 0.00 0.00 54 1009.4
20260504230506 67 236 3.0 11.0 0.00 0.00 0.00 54 1009.5
20260504230006 67 157 1.0 5.0 0.00 0.00 0.00 54 1009.5
20260504225508 67 132 2.0 8.0 0.00 0.00 0.00 53 1009.4
20260504225005 68 319 2.0 10.0 0.00 0.00 0.00 53 1009.5
20260504224508 68 150 2.0 10.0 0.00 0.00 0.00 52 1009.4
20260504224005 69 282 2.0 7.0 0.00 0.00 0.00 52 1009.4
20260504223504 69 267 1.0 10.0 0.00 0.00 0.00 52 1009.4
20260504223004 69 296 1.0 10.0 0.00 0.00 0.00 51 1009.4
20260504222504 69 288 2.0 9.0 0.00 0.00 0.00 51 1009.6
20260504222007 69 304 3.0 10.0 0.00 0.00 0.00 51 1009.6
20260504221503 69 253 3.0 10.0 0.00 0.00 0.00 50 1009.6
20260504221004 69 82 1.0 9.0 0.00 0.00 0.00 51 1009.6
20260504220505 70 110 3.0 8.0 0.00 0.00 0.00 50 1009.5
20260504220003 70 178 3.0 11.0 0.00 0.00 0.00 50 1009.6
20260504215503 70 300 4.0 11.0 0.00 0.00 0.00 50 1009.6
20260504215003 70 153 0.0 11.0 0.00 0.00 0.00 50 1009.6
20260504214502 70 162 4.0 12.0 0.00 0.00 0.00 49 1009.6
20260504214001 70 290 2.0 9.0 0.00 0.00 0.00 49 1009.8
20260504213601 70 177 3.0 9.0 0.00 0.00 0.00 49 1009.7
20260504213128 70 248 2.0 10.0 0.00 0.00 0.00 49 1009.8
20260504212602 70 261 3.0 10.0 0.00 0.00 0.00 49 1009.8
20260504212100 70 260 3.0 10.0 0.00 0.00 0.00 49 1009.8
20260504211559 69 236 3.0 10.0 0.00 0.00 0.00 51 1009.7
20260504211059 68 268 2.0 10.0 0.00 0.00 0.00 50 1009.9
20260504210559 68 168 4.0 10.0 0.00 0.00 0.00 49 1009.8
20260504205558 70 287 3.0 9.0 0.00 0.00 0.00 47 1009.9
20260504205058 71 213 4.0 9.0 0.00 0.00 0.00 48 1009.9
20260504204616 71 242 3.0 12.0 0.00 0.00 0.00 47 1009.9
20260504204058 71 301 4.0 12.0 0.00 0.00 0.00 46 1009.9
20260504203558 72 272 2.0 9.0 0.00 0.00 0.00 47 1009.9
20260504203056 71 227 2.0 15.0 0.00 0.00 0.00 48 1010.0
20260504202556 71 37 3.0 15.0 0.00 0.00 0.00 47 1009.9
20260504202057 71 226 4.0 10.0 0.00 0.00 0.00 47 1010.0
20260504201608 71 248 3.0 11.0 0.00 0.00 0.00 48 1010.0
20260504201055 70 300 2.0 10.0 0.00 0.00 0.00 47 1010.1
20260504200557 71 304 4.0 9.0 0.00 0.00 0.00 46 1010.1
20260504200107 71 223 3.0 12.0 0.00 0.00 0.00 47 1010.2
20260504195553 72 217 4.0 12.0 0.00 0.00 0.00 46 1010.2
20260504195053 71 209 2.0 9.0 0.00 0.00 0.00 49 1010.2
20260504194553 71 215 2.0 9.0 0.00 0.00 0.00 46 1010.3
20260504194056 70 229 2.0 11.0 0.00 0.00 0.00 49 1010.3